[ ตารางข้อมูล ] [ Min-Max ] [ วันนี้4 ] [ วันนี้2 ] [ เทียบ3วัน A ] [ เทียบ4วัน B ]   

วันนี้2   [ ◀ ช่วงเก่ากว่า ] [ ช่วงที่ 241 ] [ ช่วงใหม่กว่า ▶ ] [ ล่าสุด ]    [ 3 ชั่วโมง ] [ 6 ชั่วโมง ] [ 12 ชั่วโมง ] [ 24 ชั่วโมง ]   วันนี้2

อุณภูมิตู้ Knockdown4529  ราย 6 ชั่วโมง  ที่วัดได้ ในช่วงวันเวลา 07/03/2026 (07:54) ถึง 07/03/2026 (13:54) 
ความชื้นในตู้ Knockdown4529  ราย 6 ชั่วโมง  ที่วัดได้ ในช่วงวันเวลา 07/03/2026 (07:54) ถึง 07/03/2026 (13:54) 

 
DS18B20SHTC3 
IDDate d/m/Y & Timedata1
สูง
data2
ต่ำ
data3
นอก
temp
pcb
hum
pcb
Time
 259  07/03/2026 13:50:26  31.1  30.6  31.7  31.1  66.6  13:50 
 258  07/03/2026 13:45:45  31.1  30.6  31.2  30.8  66.6  13:45 
 257  07/03/2026 13:41:03  31.0  30.6  31.8  30.8  66.7  13:41 
 256  07/03/2026 13:36:22  30.9  30.5  31.5  30.8  66.7  13:36 
 255  07/03/2026 13:31:40  30.9  30.5  31.2  30.7  66.7  13:31 
 254  07/03/2026 13:26:59  30.9  30.4  31.4  30.6  66.8  13:26 
 253  07/03/2026 13:22:16  30.8  30.4  31.5  30.6  66.9  13:22 
 252  07/03/2026 13:17:35  30.8  30.3  31.2  30.5  66.9  13:17 
 251  07/03/2026 13:12:54  30.7  30.2  31.5  30.6  66.9  13:12 
 250  07/03/2026 13:08:12  30.7  30.2  31.6  30.5  67.1  13:08 
 249  07/03/2026 13:03:30  30.6  30.2  31.3  30.5  67.1  13:03 
 248  07/03/2026 12:58:48  30.6  30.1  31.0  30.2  67.2  12:58 
 247  07/03/2026 12:54:07  30.5  30.1  31.0  30.4  67.2  12:54 
 246  07/03/2026 12:49:25  30.4  30.0  31.6  30.3  67.4  12:49 
 245  07/03/2026 12:44:41  30.4  29.9  30.9  30.4  67.6  12:44 
 244  07/03/2026 12:39:59  30.3  29.9  31.5  30.2  67.7  12:39 
 243  07/03/2026 12:35:17  30.2  29.8  31.2  30.1  67.7  12:35 
 242  07/03/2026 12:30:35  30.2  29.8  31.0  30.1  68.0  12:30 
 241  07/03/2026 12:25:53  30.1  29.7  30.7  29.8  68.0  12:25 
 240  07/03/2026 12:21:12  30.1  29.7  30.5  29.7  68.1  12:21 
 239  07/03/2026 12:16:30  29.9  29.6  30.8  29.7  67.9  12:16 
 238  07/03/2026 12:11:48  29.9  29.6  30.7  29.7  68.0  12:11 
 237  07/03/2026 12:07:06  29.9  29.5  30.7  29.7  68.1  12:07 
 236  07/03/2026 12:02:24  29.8  29.4  30.7  29.7  68.4  12:02 

Data every 5 minute.


ใช้เวลาประมวลผล 0.00495 วินาที